Regional Weather Roundup
Issued by NWS

Home | Current Version | Previous Version | Text Only | Print | Product List | Glossary On
Versions: 1 2 3 4 5 6 7 8 9 10 11 12 13 14 15 16 17 18 19 20 21 22 23 24 25 26 27 28 29 30 31 32 33 34 35 36 37 38 39 40 41 42 43 44 45 46 47 48 49 50
000
ASUS46 KPQR 040010
RWROR

OREGON REGIONAL WEATHER ROUNDUP
NATIONAL WEATHER SERVICE PORTLAND OR
500 PM PDT FRI JUL 03 2015

NOTE: "FAIR" INDICATES FEW OR NO CLOUDS BELOW 12,000 FEET WITH
NO SIGNIFICANT WEATHER AND/OR OBSTRUCTIONS TO VISIBILITY.

ORZ001>013-040100-
NORTHWEST OREGON


CITY           SKY/WX    TMP DP  RH WIND       PRES   REMARKS
ASTORIA        SUNNY     70  55  59 NW9       29.96F
6HR MIN TEMP:  64; 6HR MAX TEMP:  70;

NEWPORT        SUNNY     63  55  77 NW13G18   30.00F
PORTLAND       MOSUNNY   95  56  26 NW9       29.83F HX  93
6HR MIN TEMP:  79; 6HR MAX TEMP:  95;

VANCOUVER WA   SUNNY     94  54  25 NW6       29.83F HX  92
6HR MIN TEMP:  78; 6HR MAX TEMP:  94;

SCAPPOOSE      SUNNY     94  52  24 N14       29.83F HX  91
6HR MIN TEMP:  78; 6HR MAX TEMP:  96;

HILLSBORO      SUNNY     96  44  16 N7        29.83F HX  92
6HR MIN TEMP:  82; 6HR MAX TEMP:  97;

AURORA         SUNNY     97  48  18 N6        29.84F HX  93
6HR MIN TEMP:  82; 6HR MAX TEMP:  97;

MCMINNVILLE    SUNNY     97  51  21 CALM      29.84F HX  94
6HR MIN TEMP:  82; 6HR MAX TEMP:  98;

SALEM          SUNNY     98  48  18 N9        29.83F HX  94
6HR MIN TEMP:  84; 6HR MAX TEMP:  99;

CORVALLIS      SUNNY     95  55  26 NW15      29.86F HX  93
EUGENE         MOSUNNY   99  45  15 N10       29.84F HX  95
6HR MIN TEMP:  87; 6HR MAX TEMP: 100;

$$

ORZ021-028-040100-
SOUTHWEST OREGON


CITY           SKY/WX    TMP DP  RH WIND       PRES   REMARKS
NORTH BEND     SUNNY     64  57  77 N18G26    29.97S
6HR MIN TEMP:  63; 6HR MAX TEMP:  66;

BROOKINGS      MOSUNNY   66  61  84 SW3       29.94F
ROSEBURG       MOSUNNY  100  51  19 NW9       29.82F HX  97
6HR MIN TEMP:  86; 6HR MAX TEMP: 101;

SEXTON SUMMIT  PTSUNNY   78  46  32 N8        30.04F
6HR MIN TEMP:  74; 6HR MAX TEMP:  87;

MEDFORD        PTSUNNY  101  42  13 W10       29.83F HX  96
6HR MIN TEMP:  87; 6HR MAX TEMP: 101;

$$

ORZ014>016-041-040100-
COLUMBIA GORGE


CITY           SKY/WX    TMP DP  RH WIND       PRES   REMARKS
TROUTDALE      SUNNY     96  52  22 VRB5      29.81F HX  93
6HR MIN TEMP:  78; 6HR MAX TEMP:  97;

THE DALLES     SUNNY     98  54  22 NW14G28   29.72F HX  96
6HR MIN TEMP:  88; 6HR MAX TEMP: 101;

$$

ORZ029>031-041-044-049-050-061>064-502-503-505>511-040100-
EASTERN OREGON


CITY           SKY/WX    TMP DP  RH WIND       PRES   REMARKS
REDMOND        SUNNY     98  31   9 N10G17    29.90F HX  92
6HR MIN TEMP:  86; 6HR MAX TEMP:  98;

BEND             N/A    N/A N/A N/A MISG        N/A
PRINEVILLE     SUNNY     97  23   7 N14G21    29.91F HX  90
KLAMATH FALLS  MOSUNNY   94  38  14 NW17      29.98F
6HR MIN TEMP:  85; 6HR MAX TEMP:  96;

LAKEVIEW       PTSUNNY   90  50  25 W15       30.01S
HERMISTON      SUNNY    104  39  10 W7        29.70F HX  98
6HR MIN TEMP:  92; 6HR MAX TEMP: 105;

PENDLETON      SUNNY    102  36  10 N13       29.77F HX  96
6HR MIN TEMP:  92; 6HR MAX TEMP: 104;

JOHN DAY       SUNNY     98  35  11 NW9       29.91F HX  93
MEACHAM        SUNNY     92  35  13 VRB3      29.95F
6HR MIN TEMP:  87; 6HR MAX TEMP:  93;

LA GRANDE      SUNNY     99  41  13 N6        29.85F HX  94
6HR MIN TEMP:  84; 6HR MAX TEMP:  99;

BAKER CITY     SUNNY     94  44  17 NW12      29.90F HX  90
6HR MIN TEMP:  89; 6HR MAX TEMP:  97;

BURNS          SUNNY    100  26   7 NW14G21   29.92F HX  93
6HR MIN TEMP:  90; 6HR MAX TEMP: 101;

ROME             N/A    100  32   9 VRB5      29.89F HX  94
6HR MIN TEMP:  92; 6HR MAX TEMP: 104;

ONTARIO        SUNNY    104  33   8 NE10      29.77F HX  97
6HR MIN TEMP:  95; 6HR MAX TEMP: 105;

$$


USA.gov is the U.S. government's official web portal to all federal, state and local government web resources and services.